Location: Newark
(50.4348°N, 30.5552°E)
Time: 00:56:52
(UTC+00:00)

Tiros 1 despin weight - Pass Details

Date: 25 January 2020
Orbit: 594 x 642 km, 48.2° (Epoch: 20 February)

Event Time Altitude Azimuth Distance (km) Brightness Sun altitude
Rises 13:04:38 0° 274° (W) 2,898 ? 10.6°
Reaches altitude 10° 13:06:57 10° 271° (W) 1,999 ? 10.4°
Maximum altitude 13:11:28 58° 193° (SSW) 740 ? 9.9°
Drops below altitude 10° 13:16:02 10° 115° (ESE) 2,021 ? 9.4°
Sets 13:18:24 0° 111° (ESE) 2,933 ? 9.1°
